Location: Gesvres
(49.0440°N, 2.8518°E)
Time: 05:24:04
(UTC+00:00)

Cosmos 44 - Pass Details

Date: 28 January 2023
Orbit: 582 x 777 km, 65.1° (Epoch: 29 March)

Event Time Altitude Azimuth Distance (km) Brightness Sun altitude
Rises 18:23:08 0° 225° (SW) 2,800 7.3 -17.1°
Reaches altitude 10° 18:25:21 10° 228° (SW) 1,914 6.4 -17.4°
Maximum altitude 18:29:37 67° 311° (NW) 657 3.3 -18.1°
Enters shadow 18:32:15 24° 29° (NNE) 1,296 4.4 -18.5°
